CAPE
982 1387 1326 1597 1136 737 714 868 1247 1130 1499 1112 915 874 628 623 1181 1209 1599 1349 833 488 707 1351 1517 1437 1527 1271 1033 1039 865 921 490 610 180 491 384 524 187 379 361 357 984
325 1108 1332 1554 1730 1459 1086 797 781 1083 1225 1270 1513 1207 1013 826 1034 1264 917 832 1403 1562 1505 1519 1347 1337 1406 1246 910 632 719 843 759 780 640 542 517 269 296 375 272 565 566
14 203 1673 1742 1708 1798 1678 1430 1001 1127 1487 1355 1538 1511 1459 1288 1081 1079 1267 1032 777 690 795 814 1219 1249 1209 1129 1360 1141 776 828 850 934 732 529 338 517 556 337 658 571 773
0 26 307 1742 1855 1846 1970 1982 1689 1146 1165 1641 1495 1608 1622 1476 1373 1264 1246 1176 1189 1179 1253 1270 1231 1384 1169 967 1136 1016 606 800 524 422 308 339 377 378 218 222 304 500 545
0 2 60 374 1266 1553 1722 1719 1958 1880 1339 1311 1451 1468 1550 1627 1571 1461 1570 1697 1648 1532 1772 1821 1721 1706 1417 1240 1187 918 881 905 629 277 261 189 199 138 128 438 416 639 197
0 0 3 135 530 1192 1409 1783 1565 1963 1746 1418 1500 1395 1311 1596 1582 1448 1589 1820 1903 1928 1808 1469 1476 1242 1141 1119 1040 1071 1004 796 592 332 207 0 0 263 353 440 510 109 0
0 0 0 4 157 555 1113 1687 1658 1535 1557 1455 1328 1433 1563 1580 1633 1520 1476 1779 1761 1663 1556 1381 1296 1291 1105 824 673 676 677 594 603 530 313 0 0 293 387 430 157 0 0
0 0 0 0 100 524 921 991 1489 1337 643 1221 1211 1436 1407 1707 1689 1438 1254 1378 1484 1422 1529 1282 1169 1081 962 664 34 173 213 128 221 1 0 0 147 527 514 251 48 28 78
0 0 0 1 68 478 520 691 835 1196 1084 874 783 353 1158 1632 1706 1338 1136 988 769 712 812 991 920 870 834 674 415 412 336 577 505 65 143 303 308 446 341 42 50 110 130
0 0 0 0 0 140 410 583 798 697 899 835 796 346 451 369 586 476 459 453 668 691 558 468 529 725 689 424 453 355 309 527 530 611 530 442 303 78 0 100 162 183 159
0 0 0 0 0 2 80 571 1030 776 777 781 637 463 0 198 151 71 23 40 112 244 15 12 150 296 255 190 311 495 451 423 476 459 454 449 157 105 213 230 212 298 137
0 0 0 0 0 7 233 712 1068 979 767 667 425 285 217 64 85 3 42 32 64 104 130 232 255 209 31 15 16 11 67 153 171 97 117 174 157 49 213 308 292 153 113
0 1 0 0 0 24 547 811 995 922 841 625 574 478 357 102 0 0 0 0 1 0 3 2 0 0 0 0 0 0 0 8 25 12 30 49 31 78 242 147 77 54 125
0 0 1 2 6 596 618 1015 1133 956 860 815 597 392 223 37 0 0 0 0 0 0 0 0 0 0 0 0 0 0 0 2 4 0 1 10 45 94 98 104 94 48 84
0 3 2 4 140 68 35 111 334 100 468 423 216 56 31 18 0 0 0 0 0 0 0 0 1 1 0 0 0 0 0 37 28 10 10 40 74 70 47 23 0 0 18
2 2 1 168 35 2 2 0 0 0 0 4 12 11 0 0 0 0 0 0 0 0 0 1 3 0 0 0 0 4 1 49 32 9 11 7 1 6 0 0 0 0 1
2 2 3 0 133 4 0 1 0 0 0 0 0 0 0 0 0 0 0 0 0 0 1 0 1 15 3 2 1 2 0 1 0 0 1 0 0 0 0 0 0 0 15
0 1 2 1 3 3 0 1 0 1 0 0 0 0 0 0 0 0 0 0 0 0 0 1 0 0 0 0 0 0 0 0 0 0 0 0 0 0 0 0 0 0 0
0 0 0 0 0 0 1 0 0 0 0 0 0 0 0 0 0 0 0 0 6 11 1 0 0 0 0 0 0 0 0 0 0 0 0 0 0 0 0 0 0 0 0
4 17 0 0 0 0 0 0 0 0 0 0 0 0 0 0 0 0 0 0 23 10 40 34 8 0 0 0 0 0 0 0 0 0 0 0 0 0 0 0 0 0 0
0 0 0 0 0 0 0 0 0 7 0 0 0 0 0 0 1 11 25 11 0 0 0 1 20 30 13 1 0 0 0 0 0 0 0 0 0 0 0 0 0 0 0
0 0 0 0 0 0 0 0 0 0 0 2 0 0 0 0 0 0 0 0 0 0 0 0 0 0 46 44 47 19 10 22 7 0 0 0 0 0 0 0 0 0 0
0 0 0 0 0 0 0 0 0 0 0 0 0 0 0 0 0 0 0 0 0 0 0 0 0 0 0 0 6 56 37 3 1 0 0 0 0 0 0 0 0 0 0
0 2 0 0 0 0 0 0 0 0 0 0 0 0 0 0 0 0 0 0 0 0 0 0 0 0 0 0 8 30 50 30 26 7 10 1 0 0 0 0 0 0 0
0 0 0 1 7 9 1 0 0 1 1 0 0 0 0 0 0 0 0 0 0 0 0 0 0 0 0 0 0 0 0 0 0 1 13 0 0 1 0 1 0 0 0
4 2 2 7 11 1 0 0 0 0 2 0 0 0 0 0 0 0 0 4 5 6 5 0 0 0 0 0 0 0 0 0 0 0 0 0 0 0 5 44 23 9 11
CIN
-109 -88 -155 -86 -145 -155 -145 -95 -51 -28 -17 -22 -32 -58 -100 -111 -56 -50 -28 -36 -69 -121 -63 -12 -9 -14 -10 -14 -17 -20 -23 -27 -18 -28 -43 -41 -49 -51 -65 -62 -58 -48 -33
-312 -213 -129 -99 -101 -134 -141 -131 -104 -66 -32 -13 -27 -35 -42 -84 -72 -44 -74 -93 -29 -12 -11 -9 -8 -9 -8 -11 -22 -25 -26 -37 -22 -21 -44 -51 -49 -60 -64 -54 -51 -47 -42
-414 -337 -32 -17 -62 -111 -133 -133 -123 -81 -47 -34 -22 -20 -26 -30 -42 -48 -42 -64 -89 -90 -51 -31 -9 -11 -10 -17 -14 -20 -25 -28 -26 -20 -30 -58 -73 -55 -53 -68 -31 -35 -34
-0 -395 -265 -15 -20 -53 -92 -110 -119 -115 -87 -38 -36 -21 -22 -25 -33 -42 -38 -38 -42 -34 -29 -19 -13 -12 -14 -20 -16 -18 -24 -29 -39 -32 -38 -40 -41 -59 -59 -65 -79 -68 -65
-0 -24 -294 -206 -36 -5 -8 -28 -69 -83 -95 -80 -51 -34 -20 -20 -17 -22 -23 -21 -19 -21 -14 -11 -14 -10 -19 -16 -17 -24 -21 -31 -36 -30 -15 -36 -74 -70 -59 -58 -57 -41 -122
-0 -0 -219 -202 -127 -44 -28 -6 -19 -56 -71 -69 -54 -66 -60 -19 -14 -17 -17 -14 -16 -10 -12 -28 -32 -27 -22 -16 -16 -24 -33 -32 -26 -48 -77 -0 -0 -62 -52 -41 -43 -105 -0
-0 -0 -0 -203 -192 -132 -79 -20 -14 -11 -35 -55 -50 -36 -32 -32 -18 -10 -9 -4 -8 -18 -23 -33 -37 -27 -33 -45 -47 -54 -60 -63 -56 -39 -62 -0 -0 -68 -45 -43 -79 -0 -0
-0 -0 -0 -0 -172 -89 -55 -77 -19 -17 -3 -8 -11 -21 -27 -18 -23 -22 -21 -12 -7 -13 -28 -16 -18 -29 -40 -51 -119 -93 -89 -75 -105 -10 -0 -0 -121 -37 -34 -62 -127 -140 -119
-0 -0 -0 -2 -168 -41 -75 -73 -88 -25 -35 -41 -52 -1 -3 -12 -15 -28 -36 -47 -49 -35 -33 -22 -11 -11 -21 -42 -62 -71 -72 -59 -62 -111 -102 -98 -77 -47 -53 -124 -80 -55 -62
-0 -0 -0 -0 -0 -138 -45 -54 -44 -53 -27 -37 -19 -111 -3 -6 -46 -82 -76 -47 -30 -27 -20 -16 -18 -11 -21 -48 -23 -38 -35 -33 -30 -25 -46 -75 -74 -116 -0 -79 -56 -54 -43
-0 -0 -0 -0 -0 -38 -238 -53 -9 -30 -21 -25 -46 -63 -0 -91 -74 -157 -209 -138 -89 -14 -424 -148 -71 -30 -38 -46 -42 -21 -19 -36 -38 -31 -29 -41 -69 -88 -41 -53 -54 -14 -59
-0 -0 -0 -0 -0 -198 -100 -32 -9 -14 -22 -41 -66 -86 -104 -98 -170 -185 -178 -215 -110 -101 -40 -92 -46 -55 -137 -45 -78 -139 -100 -68 -62 -81 -90 -90 -89 -102 -39 -28 -29 -56 -87
-0 -0 -0 -0 -0 -87 -25 -26 -11 -43 -35 -68 -62 -57 -49 -128 -0 -20 -0 -31 -84 -0 -23 -20 -0 -0 -0 -0 -0 -0 -0 -137 -118 -107 -104 -116 -144 -74 -16 -51 -75 -82 -42
-0 -0 -0 -0 -29 -0 -11 -4 -8 -28 -25 -28 -48 -92 -104 -187 -0 -0 -0 -0 -0 -0 -0 -0 -0 -0 -0 -0 -0 -0 -0 -19 -36 -0 -20 -141 -81 -34 -34 -29 -47 -71 -56
-0 -0 -0 -0 -123 -182 -132 -78 -123 -282 -119 -119 -163 -239 -224 -235 -0 -0 -0 -0 -0 -0 -0 -0 -0 -0 -0 -0 -0 -0 -16 -47 -37 -27 -35 -32 -34 -45 -45 -54 -0 -109 -118
-0 -0 -12 -47 -265 -0 -0 -0 -0 -0 -0 -80 -139 -285 -0 -0 -0 -0 -0 -0 -0 -0 -0 -0 -1 -0 -0 -0 -0 -5 -5 -0 -10 -2 -9 -8 -12 -10 -0 -0 -0 -37 -138
-0 -0 -0 -19 -82 -69 -0 -0 -0 -0 -0 -0 -0 -0 -0 -0 -0 -0 -0 -0 -0 -0 -5 -0 -5 -13 -40 -13 -0 -0 -0 -0 -0 -0 -0 -0 -0 -0 -0 -0 -0 -0 -124
-0 -0 -0 -0 -0 -0 -0 -0 -0 -0 -0 -0 -0 -0 -0 -0 -0 -0 -0 -0 -0 -3 -0 -21 -0 -0 -0 -0 -0 -0 -0 -0 -0 -0 -0 -0 -0 -0 -0 -0 -0 -0 -0
-0 -0 -0 -0 -0 -0 -0 -0 -0 -0 -0 -0 -0 -0 -0 -0 -0 -0 -0 -48 -44 -16 -18 -0 -0 -0 -0 -0 -0 -0 -0 -0 -0 -0 -0 -0 -0 -0 -0 -0 -0 -0 -0
-23 -22 -0 -0 -0 -0 -0 -0 -0 -0 -0 -0 -0 -0 -0 -0 -0 -0 -0 -0 -17 -23 -16 -25 -46 -0 -0 -0 -0 -0 -0 -0 -0 -0 -0 -0 -0 -0 -0 -0 -0 -0 -0
-0 -0 -0 -0 -0 -0 -0 -0 -0 -27 -0 -1 -0 -0 -0 -0 -0 -8 -13 -18 -0 -0 -36 -27 -23 -32 -42 -1 -0 -0 -0 -0 -0 -0 -0 -0 -0 -0 -0 -0 -0 -0 -0
-0 -0 -0 -0 -0 -0 -0 -0 -0 -0 -0 -10 -0 -0 -0 -0 -0 -0 -0 -0 -0 -0 -0 -0 -0 -0 -26 -25 -29 -38 -53 -49 -40 -0 -0 -0 -0 -0 -0 -0 -0 -0 -0
-0 -0 -0 -0 -0 -0 -0 -0 -0 -0 -0 -0 -0 -0 -0 -0 -0 -0 -0 -0 -0 -0 -0 -0 -0 -0 -0 -0 -47 -38 -33 -35 -17 -0 -0 -0 -0 -0 -0 -0 -0 -0 -0
-1 -10 -0 -0 -0 -0 -0 -0 -0 -0 -0 -0 -0 -0 -0 -0 -0 -0 -0 -0 -0 -0 -0 -0 -0 -0 -0 -0 -71 -59 -60 -65 -51 -51 -58 -52 -0 -1 -0 -0 -0 -0 -0
-0 -0 -0 -6 -7 -5 -10 -0 -0 -6 -10 -0 -0 -0 -0 -0 -0 -0 -0 -0 -0 -0 -0 -0 -0 -0 -0 -0 -0 -0 -0 -0 -0 -122 -111 -41 -0 -5 -0 -11 -22 -0 -0
-25 -16 -11 -12 -9 -16 -0 -0 -6 -3 -21 -0 -0 -0 -0 -0 -0 -0 -23 -66 -88 -85 -107 -0 -0 -0 -0 -0 -0 -0 -0 -0 -0 -0 -0 -0 -0 -0 -50 -31 -33 -31 -28
Wind_Speed
33 16 14 15 13 14 14 14 15 18 24 23 16 13 15 15 13 12 11 11 10 11 9 7 7 7 7 8 12 18 22 26 28 26 24 25 31 32 35 29 19 15 18
35 23 17 17 17 15 16 17 19 19 18 22 20 17 16 16 16 14 13 13 13 11 10 9 9 11 12 12 13 12 20 26 27 29 26 26 29 31 30 30 29 29 28
35 35 28 19 19 18 16 16 18 22 22 20 21 19 18 17 16 16 16 15 15 15 15 14 13 12 12 14 14 14 20 22 23 25 27 25 26 28 29 31 31 30 32
36 37 36 33 24 22 19 18 17 19 22 23 23 22 20 18 18 17 17 17 17 18 18 17 18 16 13 15 14 15 17 18 18 22 23 26 28 29 30 32 35 33 35
38 38 37 39 38 39 30 22 20 20 20 22 23 24 23 22 20 20 19 19 19 19 20 20 19 17 17 16 18 18 19 18 19 20 24 28 29 30 30 28 32 33 35
39 38 39 40 41 42 45 31 27 24 23 23 23 23 24 25 23 21 21 21 21 21 22 21 20 19 19 18 16 17 17 19 19 21 20 21 25 28 27 29 28 32 32
44 42 40 42 43 44 46 46 34 33 30 24 24 24 24 26 25 24 23 24 25 25 23 22 22 23 21 22 22 21 18 16 16 14 14 13 21 23 26 26 27 30 29
46 45 43 42 44 46 46 49 48 41 30 32 32 31 30 31 28 27 28 26 27 27 26 25 25 23 21 22 23 23 25 23 18 19 16 14 17 20 21 22 26 28 27
47 46 45 43 45 46 49 50 49 41 42 39 42 42 41 35 33 31 31 31 31 32 33 32 32 31 29 26 24 25 27 26 25 20 17 17 17 21 21 22 25 26 28
47 47 47 47 48 47 47 50 48 46 44 38 38 33 37 39 34 34 34 38 40 38 38 39 41 36 32 29 29 28 29 31 30 26 26 24 23 20 18 17 21 20 23
47 48 49 49 48 47 48 47 42 40 39 37 39 37 33 29 35 32 34 39 44 46 36 36 46 41 43 35 26 29 31 29 26 25 26 24 21 21 19 15 15 16 18
50 50 51 49 47 46 45 43 36 33 34 33 31 30 28 24 24 25 24 32 29 30 35 31 32 31 33 27 28 26 25 25 25 23 24 24 24 22 18 16 13 13 12
50 51 50 48 46 45 41 41 34 29 28 30 30 27 23 21 22 20 18 18 23 21 21 20 20 17 15 12 17 16 16 23 25 26 26 24 23 21 19 15 16 15 12
50 50 47 44 43 36 34 33 32 29 25 23 23 24 19 16 16 17 17 15 17 19 18 18 20 17 20 20 18 19 16 14 26 27 23 21 23 18 17 17 14 13 12
45 44 42 40 35 30 27 27 24 22 19 15 14 14 16 17 16 15 15 14 16 17 17 18 18 19 18 18 18 16 17 13 12 17 21 25 21 16 15 14 14 13 13
35 31 30 30 27 25 24 19 18 16 15 14 15 14 17 16 16 16 16 14 15 17 20 23 24 19 18 19 20 20 19 21 21 22 18 20 18 15 14 14 13 15 16
24 19 19 19 18 15 13 14 14 13 11 14 13 10 10 9 10 11 12 14 16 17 19 20 20 20 17 16 13 13 15 16 14 15 16 10 12 15 11 11 17 18 19
16 14 11 10 11 10 12 12 14 16 12 12 12 10 11 10 10 10 11 13 15 15 16 16 14 14 13 11 10 11 11 11 13 13 15 15 18 18 18 16 19 19 18
15 12 9 11 9 12 7 5 10 12 14 9 5 7 9 10 11 12 13 15 17 16 14 14 13 13 12 13 15 13 13 12 13 13 15 16 15 15 18 20 19 18 18
6 4 9 8 10 9 17 18 15 15 12 10 9 11 12 13 14 14 14 16 16 17 15 14 14 16 15 15 17 16 15 15 15 16 17 18 18 19 20 20 19 18 17
19 15 14 13 14 14 15 15 11 9 11 15 13 10 10 14 12 12 13 15 17 17 17 17 17 16 17 18 20 17 20 18 18 19 19 19 18 21 21 22 22 20 19
16 12 16 21 18 18 12 11 10 9 11 14 15 13 15 15 15 15 15 18 18 18 18 19 20 20 19 22 22 21 21 22 22 21 18 17 18 19 22 22 23 23 22
15 6 11 12 10 12 18 17 13 15 15 16 16 15 16 17 16 18 17 18 18 19 20 20 21 22 22 23 23 21 18 18 19 20 21 21 17 16 18 19 20 21 21
7 17 11 11 12 13 15 18 18 18 19 19 19 20 20 20 20 18 19 20 20 22 22 21 21 21 22 22 22 19 17 17 19 22 23 24 23 25 24 25 24 24 23
13 19 17 18 19 19 20 20 19 20 18 18 21 21 21 21 22 20 19 19 19 20 22 22 21 22 23 24 22 21 22 23 22 22 21 20 21 22 27 27 29 27 26
23 22 21 22 22 22 22 21 24 21 22 22 23 23 22 22 21 21 22 22 22 24 24 22 22 23 23 23 22 22 23 24 25 25 25 27 27 27 27 29 30 33 32
Wind_Direction
290 231 235 244 244 248 242 242 259 262 274 276 264 258 255 250 247 246 266 266 247 237 239 263 275 298 300 317 327 328 321 318 318 328 332 332 327 330 328 342 353 352 351
305 292 245 241 248 252 256 254 258 260 261 270 273 266 261 256 257 251 251 261 263 264 271 270 267 299 304 310 315 316 317 316 318 320 327 332 332 333 338 340 344 343 347
305 300 280 254 246 253 256 254 252 259 262 258 265 264 263 257 254 255 261 267 267 270 272 274 276 285 285 304 309 311 317 318 320 321 325 332 335 337 339 339 339 342 341
308 298 289 277 260 253 252 257 254 248 254 259 258 262 260 257 253 254 261 269 274 277 279 278 286 286 280 292 296 302 312 315 313 318 323 325 329 332 333 334 332 338 335
307 300 292 283 279 273 269 256 257 255 249 251 255 258 260 257 254 253 259 265 268 272 278 280 281 282 287 289 296 297 304 310 313 316 318 321 326 329 335 339 335 335 337
308 303 294 287 281 277 273 268 263 257 254 251 252 248 251 259 256 250 257 267 270 271 274 276 275 277 282 283 282 286 292 299 304 310 314 324 321 323 334 336 337 337 339
301 301 299 291 284 280 277 270 264 265 264 252 249 252 253 258 261 260 258 269 275 276 274 276 279 282 282 288 289 291 288 291 298 295 303 300 320 322 329 334 334 332 335
298 296 297 295 288 282 278 273 270 271 252 267 267 260 260 265 266 264 268 270 272 274 275 276 277 278 275 280 285 287 290 293 287 292 292 283 308 316 322 328 331 331 335
295 294 294 294 291 285 278 275 275 275 273 275 275 273 267 267 269 272 273 276 277 278 280 281 282 283 283 281 282 283 285 289 296 294 293 296 298 309 316 323 325 332 334
293 290 291 290 287 286 282 276 277 278 277 280 277 270 274 270 278 280 284 285 284 283 281 283 282 283 283 283 278 277 282 286 291 293 296 298 301 306 311 317 326 332 336
292 290 287 287 285 284 283 279 278 278 279 279 280 285 290 293 284 286 286 291 288 284 279 287 282 282 285 287 277 274 276 284 290 293 297 299 300 305 310 315 326 332 335
289 286 284 284 282 282 282 280 279 278 279 278 281 286 290 292 290 292 291 291 291 301 296 299 292 289 290 280 279 268 276 280 283 290 294 295 297 302 308 316 324 330 334
286 282 281 280 279 279 279 280 278 275 278 278 280 284 289 291 295 301 306 309 307 305 323 321 318 312 307 333 353 287 284 291 286 288 289 293 295 297 304 311 318 325 329
283 279 277 277 277 279 281 281 280 275 273 277 281 284 289 295 303 311 313 325 324 317 318 316 312 310 308 304 305 302 303 309 288 286 291 296 296 296 297 302 307 317 320
282 276 271 273 275 281 281 283 283 285 279 275 277 283 289 292 302 312 312 321 322 323 321 319 316 315 312 310 314 306 300 304 302 295 293 291 293 288 298 302 301 306 316
282 277 277 273 276 276 279 279 290 287 286 287 289 292 297 301 305 310 314 321 325 324 319 311 310 315 315 313 308 308 307 300 298 298 298 291 289 284 292 298 299 302 300
288 289 287 284 272 281 283 284 282 292 303 302 304 308 305 312 321 328 329 330 330 331 324 320 321 322 324 330 332 328 328 326 320 322 310 317 313 303 303 298 292 297 298
325 314 321 328 290 279 293 300 305 295 297 300 305 308 314 321 330 341 349 352 344 342 338 337 345 351 354 354 359 348 339 332 320 331 304 311 300 298 303 299 295 295 303
346 343 335 15 11 23 13 15 344 339 334 325 344 340 330 335 333 340 341 339 338 336 340 341 348 346 343 325 309 324 322 331 341 327 306 300 306 307 297 292 293 291 296
307 305 330 350 8 11 18 25 19 13 6 331 338 340 329 322 325 329 342 330 338 331 324 327 331 320 322 320 309 315 319 315 314 305 305 301 304 304 297 299 302 310 312
329 349 349 359 345 343 348 347 4 333 337 319 329 330 335 332 321 340 341 334 327 339 336 330 328 322 320 313 303 321 303 310 308 307 306 302 309 303 303 301 302 307 308
339 323 358 24 17 22 356 337 349 323 320 309 329 321 332 346 346 336 325 320 319 322 330 331 329 329 321 310 308 307 307 306 309 308 315 314 311 309 308 305 304 305 306
139 276 345 355 353 8 38 24 329 345 11 24 353 338 333 329 337 331 334 334 329 330 328 328 324 327 325 318 321 316 312 314 320 322 310 307 307 311 315 312 309 309 310
148 108 137 139 327 328 342 2 355 347 5 5 1 352 344 338 330 342 333 328 324 323 325 334 340 341 336 333 334 338 337 332 322 316 315 313 308 299 299 303 307 307 311
301 335 330 333 341 353 1 351 337 325 340 343 339 335 331 328 324 339 348 348 348 342 340 342 346 344 342 342 343 337 337 334 331 326 327 325 310 307 303 302 301 300 307
9 5 350 351 10 11 2 0 355 7 359 1 357 355 357 354 353 348 346 342 337 334 334 342 344 344 345 345 346 343 340 335 331 325 322 313 311 308 304 301 292 292 291